This demonstration page uses our WeatherBlox Daily Observations layout. Learn more.

Left ArrowRight Arrow

53.62937, 11.41316

Hourly Observations for February 12, 2017

Temp ( °F °C ) Dew Point ( °F °C ) Humidity (%) Winds ( mph kmh ) Pressure ( in mb ) Visibility ( mi km ) Precip ( " mm )
6:50 am 06:50 Mostly Cloudy 28 -2 21 -6 74 74 E 8 13 30.48 1032 30 48 N/A
7:20 am 07:20 Mostly Cloudy 28 -2 21 -6 74 74 E 9 15 30.48 1032 30 48 N/A
7:50 am 07:50 Mostly Cloudy 28 -2 21 -6 74 74 E 7 11 30.48 1032 30 48 N/A
8:20 am 08:20 Mostly Cloudy 28 -2 21 -6 74 74 E 7 11 30.50 1033 30 48 N/A
8:50 am 08:50 Mostly Cloudy 28 -2 21 -6 74 74 ENE 7 11 30.50 1033 30 48 N/A
9:20 am 09:20 Mostly Cloudy 28 -2 21 -6 74 74 ENE 9 15 30.53 1034 30 48 N/A
9:50 am 09:50 Mostly Cloudy 28 -2 23 -5 80 80 E 8 13 30.53 1034 30 48 N/A
10:20 am 10:20 Mostly Cloudy 30 -1 23 -5 75 75 E 12 19 30.53 1034 30 48 N/A
10:50 am 10:50 Mostly Cloudy 30 -1 23 -5 75 75 E 10 17 30.53 1034 30 48 N/A
11:20 am 11:20 Mostly Cloudy 30 -1 23 -5 75 75 E 10 17 30.53 1034 30 48 N/A
11:50 am 11:50 Mostly Cloudy 32 0 23 -5 69 69 E 8 13 30.56 1035 30 48 N/A
12:20 pm 12:20 Mostly Cloudy 32 0 23 -5 69 69 E 10 17 30.56 1035 30 48 N/A
12:50 pm 12:50 Mostly Cloudy 32 0 23 -5 69 69 E 10 17 30.56 1035 30 48 N/A
1:20 pm 13:20 Mostly Cloudy 32 0 25 -4 75 75 E 10 17 30.56 1035 30 48 N/A
1:50 pm 13:50 Mostly Cloudy 32 0 23 -5 69 69 E 10 17 30.56 1035 30 48 N/A
2:20 pm 14:20 Mostly Cloudy 34 1 23 -5 65 65 E 10 17 30.56 1035 30 48 N/A
2:50 pm 14:50 Mostly Cloudy 34 1 25 -4 70 70 E 9 15 30.56 1035 30 48 N/A
3:20 pm 15:20 Partly Cloudy 32 0 23 -5 69 69 E 10 17 30.56 1035 30 48 N/A
3:50 pm 15:50 Mostly Cloudy 34 1 25 -4 70 70 ENE 10 17 30.56 1035 30 48 N/A
4:20 pm 16:20 Partly Cloudy 32 0 25 -4 75 75 ENE 8 13 30.56 1035 30 48 N/A
4:50 pm 16:50 Mostly Sunny 30 -1 23 -5 75 75 ENE 7 11 30.56 1035 30 48 N/A
5:20 pm 17:20 Mostly Sunny 28 -2 23 -5 80 80 ENE 7 11 30.56 1035 30 48 N/A
5:50 pm 17:50 Mostly Clear 30 -1 23 -5 75 75 E 5 7 30.56 1035 7 11 N/A
6:20 pm 18:20 Mostly Clear 27 -3 21 -6 80 80 E 7 11 30.59 1036 7 11 N/A

Powered by AerisWeather